Buffalo, MN

11:54 PM CST on December 10, 2019 (GMT -0600)
Buffalo

Weather History for KCFE - November, 2019

Change the Weather History Date:

Sunday, November 17, 2019

  Actual Average (WUND) Record (WUND)
Temperature  
Mean Temperature 34 °F -  
Max Temperature 37 °F - - (-1)
Min Temperature 31 °F - - (-1)
Degree Days  
Heating Degree Days 31    
Moisture  
Dew Point 30 °F    
Average Humidity 84    
Maximum Humidity 94    
Minimum Humidity 76    
Precipitation  
Precipitation 0.04 in - - ()
Sea Level Pressure  
Sea Level Pressure 29.90 in    
Wind  
Wind Speed - (North)    
Max Wind Speed -    
Max Gust Speed -    
Visibility 9 miles    
Events Rain    
Averages and records for this station are not official NWS values.
T = Trace of Precipitation, MM = Missing Value Source: NWS Daily Summary

Daily Weather History Graph

Daily Weather History Graph

Search for Another Location

Airport or City:

Astronomy

Nov. 17, 2019 Rise Set
Actual Time 7:15 AM CST 4:44 PM CST
Civil Twilight 6:43 AM CST 5:16 PM CST
Nautical Twilight 6:08 AM CST 5:52 PM CST
Astronomical Twilight 5:33 AM CST 6:26 PM CST
Moon 9:18 PM CST (11/17) 12:06 PM CST (11/17)
Length of Visible Light 10h 32m
Length of Day
9h 28m
Waning Gibbous, 73% of the Moon is Illuminated
Nov 17
Waning Gibbous
Nov 19
Last Quarter
Nov 26
New
Dec 4
First Quarter
Dec 11
Full

Hourly Weather History & Observations

Time (CST) Temp. Dew Point Humidity Pressure Visibility Wind Dir Wind Speed Gust Speed Precip Events Conditions
12:15 AM 37.4 °F 32.9 °F 84% 29.95 in 7.0 mi North - - N/A   Drizzle
12:35 AM 37.4 °F 33.3 °F 85% 29.95 in 7.0 mi North - - N/A   Drizzle
12:36 AM 37.4 °F 33.3 °F 85% 29.95 in 7.0 mi North - - N/A   Drizzle
12:55 AM 37.4 °F 33.8 °F 87% 29.94 in 5.0 mi North - - N/A   Drizzle
12:56 AM 37.4 °F 33.8 °F 87% 29.94 in 5.0 mi North - - N/A   Drizzle
1:15 AM 36.5 °F 33.4 °F 89% 29.94 in 5.0 mi North - - 0.01 in   Drizzle
1:35 AM 36.5 °F 33.8 °F 90% 29.94 in 4.0 mi North - - 0.02 in Rain Light Rain
1:55 AM 36.0 °F 33.4 °F 91% 29.93 in 4.0 mi North - - 0.03 in Rain Heavy Rain
1:56 AM 36.0 °F 33.4 °F 91% 29.93 in 4.0 mi North - - 0.03 in Rain Heavy Rain
2:15 AM 35.8 °F 33.8 °F 92% 29.93 in 4.0 mi North - - 0.01 in Rain Rain
2:35 AM 35.8 °F 33.8 °F 92% 29.92 in 4.0 mi North - - 0.01 in   Drizzle
2:56 AM 35.6 °F 33.8 °F 93% 29.92 in 4.0 mi North - - 0.01 in   Drizzle
3:35 AM 35.6 °F 33.8 °F 93% 29.91 in 3.0 mi North - - N/A   Overcast
3:36 AM 35.6 °F 33.8 °F 93% 29.91 in 3.0 mi North - - N/A   Overcast
4:15 AM 35.6 °F 33.8 °F 93% 29.90 in 3.0 mi North - - N/A   Overcast
4:16 AM 35.6 °F 33.8 °F 93% 29.90 in 3.0 mi North - - N/A   Overcast
4:35 AM 35.6 °F 33.8 °F 93% 29.90 in 3.0 mi North - - N/A   Overcast
4:55 AM 35.2 °F 33.8 °F 94% 29.90 in 3.0 mi North - - N/A   Overcast
4:56 AM 35.2 °F 33.8 °F 94% 29.90 in 3.0 mi North - - N/A   Overcast
5:15 AM 35.6 °F 34.2 °F 94% 29.90 in 5.0 mi North - - N/A   Overcast
5:35 AM 35.6 °F 34.0 °F 94% 29.90 in 5.0 mi North - - N/A   Overcast
5:55 AM 35.6 °F 34.0 °F 94% 29.90 in 5.0 mi North - - N/A   Overcast
6:15 AM 36.0 °F 34.3 °F 94% 29.90 in 7.0 mi North - - N/A   Overcast
6:55 AM 36.5 °F 34.3 °F 92% 29.90 in 10.0 mi North - - N/A   Overcast
7:15 AM 35.8 °F 32.9 °F 89% 29.90 in 10.0 mi North - - N/A   Mostly Cloudy
7:16 AM 35.6 °F 32.9 °F 90% 29.90 in 10.0 mi North - - N/A   Mostly Cloudy
7:35 AM 35.6 °F 33.1 °F 91% 29.91 in 7.0 mi North - - N/A   Mostly Cloudy
7:55 AM 35.6 °F 32.9 °F 90% 29.91 in 10.0 mi North - - N/A   Overcast
7:56 AM 35.6 °F 32.7 °F 89% 29.91 in 10.0 mi North - - N/A   Overcast
8:15 AM 35.6 °F 32.5 °F 89% 29.91 in 10.0 mi North - - N/A   Overcast
8:16 AM 35.6 °F 32.5 °F 89% 29.91 in 10.0 mi North - - N/A   Overcast
8:35 AM 35.6 °F 32.2 °F 87% 29.91 in 10.0 mi North - - N/A   Overcast
8:55 AM 35.8 °F 32.0 °F 86% 29.91 in 10.0 mi North - - N/A   Overcast
8:56 AM 35.8 °F 32.0 °F 86% 29.92 in 10.0 mi North - - N/A   Overcast
9:35 AM 36.0 °F 32.0 °F 86% 29.92 in 10.0 mi North - - N/A   Overcast
9:36 AM 36.0 °F 32.0 °F 86% 29.92 in 10.0 mi North - - N/A   Overcast
9:55 AM 36.0 °F 32.0 °F 86% 29.92 in 10.0 mi North - - N/A   Overcast
10:15 AM 36.5 °F 32.0 °F 84% 29.92 in 10.0 mi North - - N/A   Overcast
10:16 AM 36.3 °F 32.0 °F 84% 29.92 in 10.0 mi North - - N/A   Overcast
10:35 AM 35.8 °F 31.3 °F 84% 29.92 in 10.0 mi North - - N/A   Overcast
10:55 AM 36.3 °F 31.5 °F 83% 29.92 in 10.0 mi North - - N/A   Overcast
10:56 AM 36.1 °F 31.3 °F 83% 29.92 in 10.0 mi North - - N/A   Overcast
11:15 AM 36.5 °F 31.6 °F 83% 29.92 in 10.0 mi North - - N/A   Overcast
11:35 AM 36.5 °F 31.3 °F 81% 29.91 in 10.0 mi North - - N/A   Overcast
11:36 AM 36.5 °F 31.1 °F 81% 29.91 in 10.0 mi North - - N/A   Overcast
11:55 AM 36.1 °F 30.4 °F 80% 29.90 in 10.0 mi North - - N/A   Overcast
12:15 PM 36.0 °F 29.8 °F 78% 29.90 in 10.0 mi North - - N/A   Overcast
12:35 PM 35.6 °F 29.3 °F 78% 29.90 in 10.0 mi North - - N/A   Overcast
1:15 PM 35.1 °F 28.6 °F 77% 29.89 in 10.0 mi North - - N/A   Overcast
1:35 PM 35.1 °F 28.2 °F 76% 29.89 in 10.0 mi North - - N/A   Overcast
1:36 PM 35.1 °F 28.2 °F 76% 29.89 in 10.0 mi North - - N/A   Overcast
1:55 PM 34.7 °F 28.4 °F 78% 29.89 in 10.0 mi North - - N/A   Overcast
2:15 PM 34.0 °F 28.2 °F 79% 29.89 in 10.0 mi North - - N/A   Overcast
2:36 PM 33.8 °F 28.2 °F 80% 29.89 in 10.0 mi North - - N/A   Overcast
2:55 PM 33.8 °F 28.0 °F 79% 29.89 in 10.0 mi North - - N/A   Overcast
2:56 PM 33.8 °F 28.0 °F 79% 29.89 in 10.0 mi North - - N/A   Overcast
3:35 PM 32.4 °F 27.3 °F 82% 29.89 in 10.0 mi North - - N/A   Overcast
3:55 PM 32.0 °F 27.0 °F 82% 29.90 in 10.0 mi North - - N/A   Overcast
4:15 PM 32.0 °F 26.6 °F 80% 29.91 in 10.0 mi North - - N/A   Overcast
4:35 PM 32.0 °F 26.4 °F 80% 29.91 in 10.0 mi North - - N/A   Overcast
4:55 PM 32.0 °F 26.1 °F 79% 29.91 in 10.0 mi North - - N/A   Overcast
5:15 PM 32.0 °F 25.7 °F 78% 29.91 in 10.0 mi North - - N/A   Overcast
5:16 PM 32.0 °F 25.7 °F 78% 29.91 in 10.0 mi North - - N/A   Overcast
5:35 PM 32.0 °F 25.9 °F 78% 29.90 in 10.0 mi North - - N/A   Overcast
5:55 PM 31.8 °F 26.1 °F 79% 29.90 in 10.0 mi North - - N/A   Overcast
5:56 PM 31.8 °F 26.1 °F 79% 29.90 in 10.0 mi North - - N/A   Overcast
6:15 PM 31.8 °F 26.1 °F 79% 29.89 in 10.0 mi North - - N/A   Overcast
6:16 PM 31.8 °F 26.1 °F 79% 29.89 in 10.0 mi North - - N/A   Overcast
6:35 PM 31.8 °F 26.2 °F 80% 29.88 in 10.0 mi North - - N/A   Overcast
6:55 PM 31.6 °F 26.2 °F 80% 29.88 in 10.0 mi North - - N/A   Overcast
6:56 PM 31.8 °F 26.2 °F 80% 29.88 in 10.0 mi North - - N/A   Overcast
7:15 PM 31.8 °F 26.4 °F 80% 29.89 in 10.0 mi North - - N/A   Overcast
7:16 PM 31.8 °F 26.4 °F 80% 29.89 in 10.0 mi North - - N/A   Overcast
7:35 PM 31.6 °F 26.6 °F 82% 29.89 in 10.0 mi North - - N/A   Overcast
7:36 PM 31.6 °F 26.6 °F 82% 29.89 in 10.0 mi North - - N/A   Overcast
7:55 PM 31.6 °F 26.4 °F 81% 29.88 in 10.0 mi North - - N/A   Overcast
8:15 PM 31.6 °F 26.6 °F 82% 29.89 in 10.0 mi North - - N/A   Overcast
8:35 PM 31.5 °F 26.2 °F 81% 29.88 in 10.0 mi North - - N/A   Overcast
8:36 PM 31.5 °F 26.2 °F 81% 29.88 in 10.0 mi North - - N/A   Overcast
8:55 PM 31.6 °F 26.1 °F 80% 29.88 in 10.0 mi North - - N/A   Overcast
9:15 PM 31.1 °F 26.4 °F 83% 29.88 in 10.0 mi North - - N/A   Overcast
9:35 PM 31.5 °F 26.1 °F 80% 29.88 in 10.0 mi North - - N/A   Overcast
9:55 PM 31.1 °F 26.1 °F 82% 29.87 in 10.0 mi North - - N/A   Overcast
10:15 PM 31.1 °F 25.7 °F 80% 29.87 in 10.0 mi North - - N/A   Overcast
10:35 PM 31.1 °F 25.7 °F 80% 29.85 in 10.0 mi North - - N/A   Overcast
10:55 PM 31.1 °F 25.7 °F 80% 29.85 in 10.0 mi North - - N/A   Overcast
10:56 PM 31.1 °F 25.9 °F 81% 29.85 in 10.0 mi North - - N/A   Overcast
11:15 PM 31.1 °F 25.9 °F 81% 29.85 in 10.0 mi North - - N/A   Overcast
11:16 PM 31.1 °F 25.9 °F 81% 29.85 in 10.0 mi North - - N/A   Overcast
11:35 PM 31.1 °F 25.9 °F 81% 29.85 in 10.0 mi North - - N/A   Overcast
11:55 PM 31.1 °F 26.1 °F 82% 29.85 in 10.0 mi North - - N/A   Overcast